This is the latest recevied weather packets stored in our database for station/object KF7SOJ. If no packets are shown the sender has not sent any weather packets the latest 10 day(s).
| Time | Temp. | Humidity | Pressure | Rain* | Wind** | Luminosity | Snow |
|---|---|---|---|---|---|---|---|
| 1777632514 | 3.89° C | 56% | 935.3 hPa | 0 mm | - | 0 W/m² | - |
| 1777632212 | 3.89° C | 56% | 935.5 hPa | 0 mm | - | 0 W/m² | - |
| 1777631909 | 3.89° C | 57% | 935.6 hPa | 0 mm | - | 0 W/m² | - |
| 1777631608 | 3.89° C | 57% | 935.3 hPa | 0 mm | - | 0 W/m² | - |
| 1777631304 | 3.89° C | 56% | 935.4 hPa | 0 mm | - | 0 W/m² | - |
| 1777631001 | 4.44° C | 55% | 935.3 hPa | 0 mm | - | 0 W/m² | - |
| 1777630697 | 5° C | 53% | 935.3 hPa | 0 mm | - | 0 W/m² | - |
| 1777630394 | 5° C | 52% | 935.2 hPa | 0 mm | - | 0 W/m² | - |
| 1777630092 | 5° C | 52% | 935.3 hPa | 0 mm | - | 0 W/m² | - |
| 1777629789 | 5° C | 51% | 935.5 hPa | 0 mm | - | 0 W/m² | - |
| 1777629486 | 5.56° C | 50% | 935.4 hPa | 0 mm | - | 0 W/m² | - |
| 1777629181 | 5.56° C | 50% | 935.3 hPa | 0 mm | - | 0 W/m² | - |
| 1777628878 | 5° C | 51% | 935.1 hPa | 0 mm | - | 0 W/m² | - |
| 1777628575 | 5° C | 52% | 935.3 hPa | 0 mm | - | 0 W/m² | - |
| 1777628271 | 5.56° C | 50% | 935 hPa | 0 mm | - | 0 W/m² | - |
| 1777627968 | 5.56° C | 49% | 935.1 hPa | 0 mm | - | 0 W/m² | - |
| 1777627667 | 5.56° C | 49% | 935.1 hPa | 0 mm | - | 0 W/m² | - |
| 1777627366 | 5.56° C | 49% | 935 hPa | 0 mm | - | 0 W/m² | - |
| 1777627064 | 5.56° C | 49% | 934.9 hPa | 0 mm | - | 0 W/m² | - |
| 1777626759 | 6.11° C | 49% | 935.1 hPa | 0 mm | - | 0 W/m² | - |
| 1777626456 | 5.56° C | 49% | 935.1 hPa | 0 mm | - | 0 W/m² | - |
| 1777626155 | 5.56° C | 49% | 935.2 hPa | 0 mm | - | 0 W/m² | - |
| 1777625854 | 5.56° C | 48% | 935.3 hPa | 0 mm | - | 0 W/m² | - |
| 1777625550 | 6.11° C | 48% | 935.1 hPa | 0 mm | - | 0 W/m² | - |
| 1777625246 | 5.56° C | 48% | 935.2 hPa | 0 mm | - | 0 W/m² | - |
* Rain latest hour (hover to see other rain measurements)
** Current wind speed in m/s (hover to see current wind gust speed)